Home   Weather   Boulogne-Billancourt   Past weeks

Flag for France Past Weather in Boulogne-Billancourt, Île-de-France, France — Yesterday and Last 2 Weeks

Now
39 °F

Fog.


Feels Like: 35 °F
Forecast: 47 / 53 °F
Wind: 6 mph from Southwest

Location: Paris-Orly

Current Time: Dec 10, 2016 at 1:48:16 pm

Latest Report: Dec 10, 2016 at 1:00 pm


Visibility: 0 mi

Pressure: 30.33 "Hg

Humidity: 100%

Dew Point: 39 °F

Location of Boulogne-BillancourtLocation

Past Weather in Boulogne-Billancourt — Graph

°F

Boulogne-Billancourt Temperature Yesterday

Maximum temperature yesterday: 52 °F (at 2:30 pm)
Minimum temperature yesterday: 36 °F (at 3:00 am)
Average temperature yesterday: 41 °F

High & Low Weather Summary for the Past Weeks

 TemperatureHumidityPressure
High52 °F (Dec 9, 2:30 pm)100% (Nov 27, 5:00 am)30.60 "Hg (Nov 27, 5:00 am)
Low21 °F (Dec 1, 6:00 am)39% (Nov 30, 2:30 pm)29.95 "Hg (Nov 25, 12:00 pm)
Average38 °F83%30.30 "Hg
* Reported Nov 25 12:00 pm — Dec 10 12:30 pm, Boulogne-Billancourt, Weather by CustomWeather, © 2016

Note: Actual official high and low records may vary slightly from our data, if they occured in-between our weather recording intervals... More about our weather records

Advertising

Boulogne-Billancourt Weather History for the Previous 24 Hours

Scroll right to see more
 ConditionsComfort  
Time TempWeatherWind HumidityBarometerVisibility
12:30 pm
Sat, Dec 10
39 °FFog.8 mph100%30.33 "Hg0 mi
12:00 pm39 °FFog.7 mph100%30.33 "Hg0 mi
11:30 am39 °FFog.6 mph100%30.33 "Hg0 mi
11:00 am37 °FFog.3 mph100%30.36 "Hg1 mi
10:30 am37 °FFog.3 mph100%30.36 "Hg1 mi
10:00 am37 °FFog.3 mph100%30.33 "Hg1 mi
9:30 am37 °FFog.2 mph100%30.33 "Hg1 mi
9:00 am36 °FFog.3 mph100%30.33 "Hg1 mi
8:30 am36 °FFog.3 mph100%30.33 "Hg1 mi
8:00 am36 °FFog.5 mph93%30.33 "Hg2 mi
7:30 am34 °FPassing clouds.5 mph100%30.30 "Hg6 mi
7:00 am34 °FClear.6 mph100%30.30 "Hg10 mi
6:30 am34 °FClear.5 mph100%30.33 "Hg10 mi
6:00 am36 °FClear.5 mph93%30.33 "Hg10 mi
5:30 am36 °FClear.5 mph93%30.33 "Hg10 mi
5:00 am36 °FClear.3 mph93%30.33 "Hg10 mi
4:30 am36 °FClear.1 mph93%30.33 "Hg10 mi
4:00 am37 °FClear.2 mph93%30.33 "Hg10 mi
3:30 am37 °FClear.2 mph93%30.33 "Hg10 mi
3:00 am37 °FClear.2 mph93%30.33 "Hg10 mi
2:30 am39 °FClear.No wind93%30.33 "Hg10 mi
2:00 am39 °FClear.2 mph93%30.36 "Hg10 mi
1:30 am39 °FChilly.2 mph93%30.36 "HgN/A
1:00 am39 °FChilly.No wind93%30.36 "HgN/A
12:30 am39 °FSleet. Overcast.2 mph93%30.36 "HgN/A
12:00 am39 °FFog.No wind93%30.36 "HgN/A
11:30 pm
Fri, Dec 9
41 °FFog.5 mph93%30.36 "HgN/A
11:00 pm41 °FFog.3 mph93%30.36 "HgN/A
10:30 pm41 °FFog.5 mph93%30.36 "HgN/A
10:00 pm41 °FFog.6 mph93%30.39 "HgN/A
9:30 pm39 °FFog.3 mph93%30.39 "HgN/A
9:00 pm41 °FFog.6 mph93%30.39 "HgN/A
8:30 pm43 °FPassing clouds.5 mph87%30.39 "HgN/A
8:00 pm43 °FClear.No wind93%30.39 "Hg10 mi
7:30 pm45 °FClear.1 mph87%30.39 "Hg10 mi
7:00 pm45 °FClear.1 mph87%30.39 "Hg10 mi
6:30 pm46 °FClear.2 mph87%30.39 "Hg10 mi
6:00 pm46 °FClear.2 mph87%30.39 "Hg10 mi
5:30 pm46 °FClear.5 mph87%30.42 "Hg10 mi
5:00 pm48 °FClear.5 mph82%30.42 "Hg10 mi
4:30 pm50 °FSunny.3 mph76%30.42 "Hg10 mi
4:00 pm50 °FSunny.3 mph82%30.39 "Hg10 mi
3:30 pm50 °FSunny.5 mph82%30.39 "Hg10 mi
3:00 pm50 °FSunny.7 mph76%30.42 "Hg10 mi
2:30 pm52 °FSunny.7 mph72%30.42 "Hg10 mi
2:00 pm50 °FSunny.9 mph76%30.42 "Hg10 mi
1:30 pm48 °FSunny.7 mph76%30.42 "Hg10 mi
1:00 pm48 °FPassing clouds.3 mph76%30.45 "HgN/A
Weather by CustomWeather, © 2016

See weather overviewHow to use our weather pages